Content
SEND FEEDBACK

Daily
Averages
Monthly
Summary
United States of America

KOUNTZE, TEXAS


Home > North America > United States > Texas
Elevation: 90 feet     Latitude: 30 22N     Longitude: 094 19W

WEATHER
 
SELECT A DAY
Number of Records: 79,879;   Date Range: 3/9/11 - 12/19/14
 
SHARE

PRINT THIS DATA

[ ← Previous Day ]
WEATHER ALMANAC - FEBRUARY 5, 2013
[ Next Day → ]
[ °C ]   °F
Weather ElementAverageHighLow
Temperature66.7 °F77 °F (2:35 pm)60.8 °F (3:55 am)
Dewpoint58.5 °F60.8 °F (8:15 am)51.8 °F (3:55 pm)
Humidity77.5 %94 % (3:55 am)41 % (3:55 pm)
Barometer29.97 in30.02 in (9:55 pm)29.90 in (3:55 am)
Wind Speed3.3 mph9.2 mph (6:15 pm)
Weather ElementAverage
Visibility7.8 mi
Wind DirectionENE (75.2 °)

Weather ElementTotal
Precipitation---
Cooling Degree Days3.9 (Base 65)
Growing Degree Days18.9 (Base 50)
Averaged from 52 records on February 5, 2013
WEATHER CONDITIONS BREAKOUT
WIND DIRECTION BREAKOUT
WEATHER BY HOUR - FEBRUARY 5, 2013
[ °C ]   °F
Local TimeTemperatureDewpointHumidityBarometerVisibilityWind DirectionWind SpeedGust SpeedPrecipitationEventsConditions
3:55 AM60.8 °F59.0 °F94 %29.90 in10.0 miESE (110°)3.5 mphOvercast
4:15 AM60.8 °F59.0 °F94 %29.90 in5.0 miCalmOvercast
4:55 AM62.6 °F59.0 °F88 %29.91 in5.0 miCalmOvercast
5:15 AM62.6 °F59.0 °F88 %29.91 in5.0 miCalmOvercast
6:15 AM62.6 °F59.0 °F88 %29.94 in7.0 miCalmOvercast
6:55 AM62.6 °F59.0 °F88 %29.94 in5.0 miEast (100°)5.8 mphOvercast
7:15 AM62.6 °F59.0 °F88 %29.95 in5.0 miCalmOvercast
7:35 AM62.6 °F59.0 °F88 %29.96 in5.0 miESE (110°)3.5 mphOvercast
7:55 AM62.6 °F59.0 °F88 %29.97 in5.0 miSE (140°)3.5 mphOvercast
8:15 AM62.6 °F60.8 °F94 %29.97 in5.0 miSE (140°)3.5 mphOvercast
8:35 AM62.6 °F59.0 °F88 %29.98 in7.0 miCalmOvercast
8:55 AM62.6 °F60.8 °F94 %29.99 in10.0 miSE (140°)3.5 mphOvercast
9:15 AM64.4 °F60.8 °F88 %30.00 in10.0 miCalmOvercast
9:55 AM64.4 °F60.8 °F88 %30.00 in10.0 miNorthOvercast
10:15 AM66.2 °F60.8 °F83 %30.01 in10.0 miNorthOvercast
10:35 AM68.0 °F60.8 °F78 %30.01 in10.0 miNorthOvercast
10:55 AM68.0 °F60.8 °F78 %30.01 in10.0 miNorthOvercast
11:15 AM68.0 °F60.8 °F78 %30.00 in10.0 miNorthOvercast
11:35 AM68.0 °F60.8 °F78 %30.00 in10.0 miCalmOvercast
11:55 AM69.8 °F60.8 °F73 %30.00 in10.0 miCalmOvercast
12:15 PM71.6 °F59.0 °F64 %29.99 in10.0 miNorthOvercast
12:35 PM71.6 °F59.0 °F64 %29.99 in10.0 miEast (80°)3.5 mphOvercast
12:55 PM73.4 °F57.2 °F57 %29.98 in10.0 miCalmOvercast
1:35 PM75.2 °F55.4 °F50 %29.96 in10.0 miCalmScattered Clouds
1:55 PM75.2 °F55.4 °F50 %29.95 in10.0 miCalmScattered Clouds
2:15 PM75.2 °F53.6 °F47 %29.94 in10.0 miSW (230°)4.6 mphClear
2:35 PM77.0 °F55.4 °F47 %29.94 in10.0 miCalmClear
3:15 PM73.4 °F53.6 °F50 %29.93 in10.0 miCalmMostly Cloudy
3:55 PM77.0 °F51.8 °F41 %29.92 in10.0 miCalmClear
4:15 PM77.0 °F51.8 °F41 %29.92 in10.0 miCalmScattered Clouds
4:55 PM75.2 °F51.8 °F44 %29.93 in10.0 miCalmMostly Cloudy
5:15 PM73.4 °F53.6 °F50 %29.93 in10.0 miSE (140°)8.1 mphScattered Clouds
5:35 PM71.6 °F55.4 °F57 %29.93 in10.0 miSE (130°)8.1 mphClear
5:55 PM69.8 °F55.4 °F60 %29.93 in10.0 miSE (140°)5.8 mphClear
6:15 PM69.8 °F55.4 °F60 %29.94 in10.0 miESE (120°)9.2 mphClear
6:35 PM68.0 °F59.0 °F73 %29.94 in10.0 miESE (120°)9.2 mphClear
6:55 PM64.4 °F59.0 °F83 %29.96 in10.0 miSE (140°)5.8 mphClear
7:15 PM64.4 °F59.0 °F83 %29.97 in10.0 miSE (130°)4.6 mphClear
7:35 PM64.4 °F60.8 °F88 %29.97 in10.0 miSE (130°)6.9 mphClear
7:55 PM62.6 °F59.0 °F88 %29.98 in10.0 miSE (140°)5.8 mphClear
8:15 PM62.6 °F59.0 °F88 %29.99 in7.0 miESE (110°)5.8 mphMostly Cloudy
8:35 PM62.6 °F60.8 °F94 %30.00 in7.0 miESE (110°)5.8 mphOvercast
8:55 PM62.6 °F60.8 °F94 %30.01 in7.0 miSE (130°)4.6 mphOvercast
9:15 PM62.6 °F60.8 °F94 %30.01 in7.0 miESE (120°)3.5 mphOvercast
9:35 PM62.6 °F60.8 °F94 %30.01 in7.0 miSSE (150°)3.5 mphOvercast
9:55 PM62.6 °F60.8 °F94 %30.02 in7.0 miSSE (160°)4.6 mphOvercast
10:15 PM62.6 °F60.8 °F94 %30.02 in4.0 miSSE (160°)4.6 mphOvercast
10:35 PM62.6 °F60.8 °F94 %30.02 in1.2 miSSE (160°)8.1 mphOvercast
10:55 PM62.6 °F60.8 °F94 %30.02 in1.2 miSE (140°)4.6 mphOvercast
11:15 PM62.6 °F59.0 °F88 %30.02 in0.8 miSE (130°)6.9 mphOvercast
11:35 PM62.6 °F60.8 °F94 %30.02 in0.5 miSSE (160°)3.5 mphFogFog
11:55 PM62.6 °F59.0 °F88 %30.01 in0.8 miSE (140°)3.5 mphOvercast
Hourly data recorded from KBMT, located miles away from Kountze, Texas







STORIES FROM OUR PARTNERS